Location: Hobi?a Gr?di?te
(45.4833°N, 22.7833°E)
Time: 10:25:16
(UTC+00:00)

SKYMED 2 - Pass Details

Date: 28 January 2023
Orbit: 622 x 623 km, 97.9° (Epoch: 31 March)

Event Time Altitude Azimuth Distance (km) Brightness Sun altitude
Rises 16:04:28 0° 20° (NNE) 2,917 6.6 -6.5°
Reaches altitude 10° 16:06:48 10° 29° (NNE) 2,006 5.7 -6.9°
Maximum altitude 16:10:52 37° 97° (E) 969 4.1 -7.6°
Drops below altitude 10° 16:14:54 10° 166° (SSE) 1,990 6.2 -8.3°
Sets 16:17:12 0° 174° (S) 2,891 7.2 -8.7°
